GW4300 Weather Reports


Display with metric or nautical units.
time (UTC)temp
F
wind
direction
speed
MPH
gust
MPH
rain 1hr
in
rain 24hr
in
rain mn
in
humidity
%
barometer
mb
20260504202008 75 84 0.0 3.0 0.00 0.00 0.00 38 1010.7
20260504201518 75 296 1.0 3.0 0.00 0.00 0.00 36 1010.7
20260504201005 75 84 0.0 3.0 0.00 0.00 0.00 37 1010.7
20260504200505 75 327 1.0 4.0 0.00 0.00 0.00 37 1010.7
20260504200020 75 170 1.0 4.0 0.00 0.00 0.00 36 1010.8
20260504195504 74 153 1.0 3.0 0.00 0.00 0.00 38 1010.9
20260504195006 74 134 0.0 3.0 0.00 0.00 0.00 36 1011.0
20260504194518 74 74 1.0 3.0 0.00 0.00 0.00 38 1011.0
20260504194007 74 170 1.0 3.0 0.00 0.00 0.00 36 1011.1
20260504193506 74 132 1.0 3.0 0.00 0.00 0.00 36 1011.3
20260504193020 74 173 1.0 3.0 0.00 0.00 0.00 37 1011.4
20260504192507 74 148 0.0 3.0 0.00 0.00 0.00 38 1011.5
20260504192009 73 280 0.0 3.0 0.00 0.00 0.00 37 1011.6
20260504191514 73 93 1.0 4.0 0.00 0.00 0.00 37 1011.6
20260504191008 73 164 1.0 4.0 0.00 0.00 0.00 35 1011.7
20260504190508 74 256 0.0 4.0 0.00 0.00 0.00 36 1011.7
20260504185506 73 347 1.0 4.0 0.00 0.00 0.00 36 1011.9
20260504185005 73 153 1.0 4.0 0.00 0.00 0.00 36 1011.9
20260504184524 73 103 0.0 3.0 0.00 0.00 0.00 37 1012.0
20260504184008 73 173 1.0 3.0 0.00 0.00 0.00 36 1012.0
20260504183506 73 184 0.0 4.0 0.00 0.00 0.00 36 1012.1
20260504183018 73 154 1.0 4.0 0.00 0.00 0.00 35 1012.1
20260504182507 72 263 0.0 4.0 0.00 0.00 0.00 36 1012.1
20260504182008 72 153 0.0 2.0 0.00 0.00 0.00 37 1012.1
20260504181522 72 138 1.0 4.0 0.00 0.00 0.00 38 1012.2
20260504181009 71 169 0.0 4.0 0.00 0.00 0.00 37 1012.2
20260504175504 71 202 0.0 3.0 0.00 0.00 0.00 37 1012.5
20260504175007 71 48 1.0 3.0 0.00 0.00 0.00 37 1012.5
20260504174507 71 178 1.0 4.0 0.00 0.00 0.00 38 1012.6
20260504174002 70 151 0.0 4.0 0.00 0.00 0.00 39 1012.7
20260504173504 70 77 1.0 6.0 0.00 0.00 0.00 40 1012.7
20260504173009 69 137 1.0 6.0 0.00 0.00 0.00 42 1012.8
20260504172503 69 115 1.0 3.0 0.00 0.00 0.00 40 1012.9
20260504172003 69 76 1.0 4.0 0.00 0.00 0.00 40 1012.9
20260504171516 69 103 1.0 4.0 0.00 0.00 0.00 39 1012.8
20260504170510 69 156 0.0 3.0 0.00 0.00 0.00 41 1013.0
20260504151007 65 333 1.0 3.0 0.00 0.00 0.00 41 1014.2
20260504150512 64 276 0.0 2.0 0.00 0.00 0.00 43 1014.3
20260504130509 58 216 1.0 4.0 0.00 0.00 0.00 51 1014.8
20260504110509 0 0.0 0.0 0.00 0.00 0.00 1015.3
20260504100507 0 0.0 0.0 0.00 0.00 0.00 1015.3
20260504082007 0 0.0 0.0 0.00 0.00 0.00 1015.6
20260504081533 0 0.0 0.0 0.00 0.00 0.00 1015.6
20260504081008 0 0.0 0.0 0.00 0.00 0.00 1015.7
20260504080508 0 0.0 0.0 0.00 0.00 0.00 1015.7
20260504050508 47 277 0.0 0.0 0.00 0.00 0.00 73 1015.8
20260504050021 47 277 0.0 0.0 0.00 0.00 0.00 72 1015.8
20260504045505 48 277 0.0 0.0 0.00 0.00 0.00 68 1015.8
20260504045008 48 264 0.0 0.0 0.00 0.00 0.00 69 1015.9
20260504044529 48 264 0.0 1.0 0.00 0.00 0.00 67 1016.0
20260504044010 49 264 0.0 1.0 0.00 0.00 0.00 67 1016.0
20260504043503 49 252 0.0 0.0 0.00 0.00 0.00 67 1015.9
20260504043015 48 251 0.0 0.0 0.00 0.00 0.00 66 1015.9
20260504042507 48 251 0.0 0.0 0.00 0.00 0.00 66 1015.9
20260504042008 48 273 0.0 0.0 0.00 0.00 0.00 64 1015.9
20260504041538 47 281 0.0 0.0 0.00 0.00 0.00 68 1015.8
20260504041009 47 281 0.0 0.0 0.00 0.00 0.00 69 1015.8
20260504040510 46 281 0.0 1.0 0.00 0.00 0.00 68 1015.8
20260504040032 45 282 0.0 1.0 0.00 0.00 0.00 70 1015.8
20260504035510 45 279 0.0 0.0 0.00 0.00 0.00 73 1015.8
20260504035006 45 279 0.0 0.0 0.00 0.00 0.00 74 1015.7
20260504034518 45 279 0.0 0.0 0.00 0.00 0.00 74 1015.6
20260504034007 45 279 0.0 0.0 0.00 0.00 0.00 75 1015.6
20260504033507 45 279 0.0 0.0 0.00 0.00 0.00 75 1015.6
20260504033025 45 279 0.0 0.0 0.00 0.00 0.00 75 1015.5
20260504032509 45 290 0.0 0.0 0.00 0.00 0.00 75 1015.4
20260504032012 45 290 0.0 0.0 0.00 0.00 0.00 74 1015.3
20260504031530 45 290 0.0 0.0 0.00 0.00 0.00 73 1015.2
20260504031006 45 290 0.0 0.0 0.00 0.00 0.00 73 1015.2
20260504030508 45 290 0.0 0.0 0.00 0.00 0.00 72 1015.2
20260504030022 45 290 0.0 0.0 0.00 0.00 0.00 72 1015.3
20260504025507 45 290 0.0 0.0 0.00 0.00 0.00 72 1015.2
20260504025011 45 290 0.0 0.0 0.00 0.00 0.00 71 1015.2
20260504024526 46 290 0.0 0.0 0.00 0.00 0.00 71 1015.2
20260504024009 46 290 0.0 0.0 0.00 0.00 0.00 70 1015.2
20260504023507 46 290 0.0 0.0 0.00 0.00 0.00 70 1015.2
20260504023018 46 290 0.0 0.0 0.00 0.00 0.00 69 1015.2
20260504022507 47 290 0.0 0.0 0.00 0.00 0.00 68 1015.2
20260504022008 47 290 0.0 0.0 0.00 0.00 0.00 68 1015.2
20260504021524 47 290 0.0 0.0 0.00 0.00 0.00 67 1015.2
20260504021006 47 290 0.0 0.0 0.00 0.00 0.00 67 1015.2
20260504020508 47 290 0.0 0.0 0.00 0.00 0.00 67 1015.1
20260504020036 48 290 0.0 0.0 0.00 0.00 0.00 66 1015.1
20260504015507 48 290 0.0 0.0 0.00 0.00 0.00 65 1015.2
20260504015005 48 290 0.0 0.0 0.00 0.00 0.00 64 1015.1
20260504014502 48 290 0.0 0.0 0.00 0.00 0.00 63 1015.2
20260504014006 49 290 0.0 0.0 0.00 0.00 0.00 63 1015.1
20260504013505 49 290 0.0 0.0 0.00 0.00 0.00 62 1015.1
20260504013006 49 290 0.0 0.0 0.00 0.00 0.00 61 1015.1
20260504012508 49 290 0.0 0.0 0.00 0.00 0.00 60 1015.0
20260504012004 50 290 0.0 0.0 0.00 0.00 0.00 60 1015.0
20260504011515 50 290 0.0 0.0 0.00 0.00 0.00 56 1014.9
20260504011001 51 290 0.0 0.0 0.00 0.00 0.00 55 1014.8
20260504010501 52 290 0.0 0.0 0.00 0.00 0.00 54 1014.8
20260504010005 52 290 0.0 0.0 0.00 0.00 0.00 52 1014.8
20260504005503 53 290 0.0 0.0 0.00 0.00 0.00 51 1014.8
20260504005004 54 290 0.0 0.0 0.00 0.00 0.00 49 1014.7
20260504004515 54 290 0.0 0.0 0.00 0.00 0.00 47 1014.6
20260504004004 55 290 0.0 0.0 0.00 0.00 0.00 47 1014.6
20260504003505 55 290 0.0 0.0 0.00 0.00 0.00 45 1014.5
20260504003019 55 290 0.0 0.0 0.00 0.00 0.00 44 1014.5
20260504002502 56 290 0.0 0.0 0.00 0.00 0.00 43 1014.5
20260504002002 56 290 0.0 0.0 0.00 0.00 0.00 41 1014.4
20260504001511 57 290 0.0 0.0 0.00 0.00 0.00 41 1014.4
20260504001004 57 290 0.0 0.0 0.00 0.00 0.00 40 1014.4
20260504000505 58 290 0.0 0.0 0.00 0.00 0.00 39 1014.4
20260504000013 58 290 0.0 1.0 0.00 0.00 0.00 39 1014.4
20260503235504 59 290 0.0 1.0 0.00 0.00 0.00 38 1014.3
20260503235004 59 258 0.0 0.0 0.00 0.00 0.00 35 1014.2
20260503234503 60 257 0.0 0.0 0.00 0.00 0.00 35 1014.2
20260503234003 60 257 0.0 2.0 0.00 0.00 0.00 33 1014.1
20260503233502 60 257 0.0 2.0 0.00 0.00 0.00 35 1014.0
20260503233011 61 234 0.0 2.0 0.00 0.00 0.00 32 1014.0
20260503232504 61 234 0.0 2.0 0.00 0.00 0.00 31 1014.0
20260503232005 61 271 0.0 1.0 0.00 0.00 0.00 31 1014.0
20260503231518 62 279 0.0 2.0 0.00 0.00 0.00 31 1014.0
20260503231010 62 266 0.0 3.0 0.00 0.00 0.00 31 1013.9
20260503230502 62 234 0.0 3.0 0.00 0.00 0.00 29 1013.9
20260503230011 62 290 0.0 2.0 0.00 0.00 0.00 29 1013.9
20260503225503 62 319 0.0 3.0 0.00 0.00 0.00 30 1013.9
20260503225003 62 340 0.0 4.0 0.00 0.00 0.00 29 1014.0
20260503224513 62 195 2.0 7.0 0.00 0.00 0.00 29 1014.1
20260503224007 62 204 2.0 9.0 0.00 0.00 0.00 28 1014.0
20260503223507 63 334 3.0 9.0 0.00 0.00 0.00 28 1013.9
20260503223026 63 288 2.0 7.0 0.00 0.00 0.00 29 1014.0
20260503222503 62 309 0.0 7.0 0.00 0.00 0.00 30 1013.9
20260503222004 62 271 1.0 6.0 0.00 0.00 0.00 29 1013.9
20260503221508 62 217 1.0 5.0 0.00 0.00 0.00 30 1013.9
20260503221004 62 215 2.0 8.0 0.00 0.00 0.00 28 1014.0
20260503220504 62 207 2.0 8.0 0.00 0.00 0.00 29 1014.1
20260503220016 63 290 2.0 4.0 0.00 0.00 0.00 30 1014.2
20260503215508 63 193 2.0 5.0 0.00 0.00 0.00 29 1014.0
20260503215013 62 322 1.0 9.0 0.00 0.00 0.00 28 1014.0
20260503214508 62 269 2.0 9.0 0.00 0.00 0.00 28 1014.0
20260503214007 62 215 3.0 8.0 0.00 0.00 0.00 29 1014.1
20260503213504 62 317 3.0 8.0 0.00 0.00 0.00 28 1014.0
20260503213012 62 326 4.0 10.0 0.00 0.00 0.00 31 1014.0
20260503212508 62 212 1.0 10.0 0.00 0.00 0.00 31 1014.1
20260503212007 62 314 3.0 9.0 0.00 0.00 0.00 30 1014.0
20260503211519 62 275 1.0 7.0 0.00 0.00 0.00 30 1013.9
20260503211013 61 273 2.0 7.0 0.00 0.00 0.00 30 1014.0
20260503210502 61 229 2.0 8.0 0.00 0.00 0.00 32 1014.0
20260503210006 61 200 3.0 10.0 0.00 0.00 0.00 30 1014.0
20260503205502 61 228 3.0 13.0 0.00 0.00 0.00 31 1014.0
20260503205004 62 159 6.0 13.0 0.00 0.00 0.00 30 1014.2
20260503204516 61 291 3.0 10.0 0.00 0.00 0.00 33 1014.1
20260503204008 61 209 2.0 10.0 0.00 0.00 0.00 30 1014.1
20260503203509 61 300 4.0 9.0 0.00 0.00 0.00 32 1014.2
20260503203033 61 309 4.0 13.0 0.00 0.00 0.00 31 1014.2
20260503202503 61 360 4.0 13.0 0.00 0.00 0.00 29 1014.3